DAL3177 KATL-KCLT

Flight info

Callsign DAL3177
Flight time 0h 44m
Altitude 29000
Route PHIIL3 PHIIL CNTLR JONZE5
Aircraft A319/M-SDE3FGHIRWY/LB1

Departure

Time 2026-05-04 21:20
Airport Hartsfield Jackson Atlanta International Airport (KATL)

Arrival

Time 2026-05-04 22:04
Airport Charlotte Douglas International Airport (KCLT)
Time Latitude Longitude Altitude Speed Heading
2026-05-04 21:07 33.64154 -84.42886 1036 ft 0 kts 284°
2026-05-04 21:11 33.64153 -84.42877 1035 ft 2 kts 282°
2026-05-04 21:11 33.64149 -84.42858 1035 ft 2 kts 281°
2026-05-04 21:12 33.64146 -84.42839 1035 ft 2 kts 275°
2026-05-04 21:12 33.64146 -84.42819 1035 ft 2 kts 239°
2026-05-04 21:12 33.64157 -84.42810 1035 ft 1 kts 182°
2026-05-04 21:12 33.64159 -84.42809 1035 ft 0 kts 181°
2026-05-04 21:14 33.64156 -84.42809 1035 ft 2 kts 181°
2026-05-04 21:14 33.64124 -84.42809 1035 ft 8 kts 179°
2026-05-04 21:14 33.64051 -84.42809 1035 ft 13 kts 180°
2026-05-04 21:14 33.63943 -84.42809 1035 ft 16 kts 180°
2026-05-04 21:15 33.63834 -84.42809 1035 ft 15 kts 180°
2026-05-04 21:15 33.63750 -84.42810 1035 ft 6 kts 181°
2026-05-04 21:15 33.63745 -84.42810 1035 ft 0 kts 181°
2026-05-04 21:16 33.63743 -84.42810 1035 ft 2 kts 181°
2026-05-04 21:16 33.63705 -84.42809 1035 ft 9 kts 178°
2026-05-04 21:16 33.63660 -84.42732 1036 ft 16 kts 97°
2026-05-04 21:16 33.63656 -84.42571 1036 ft 23 kts 90°
2026-05-04 21:17 33.63657 -84.42359 1036 ft 27 kts 90°
2026-05-04 21:17 33.63643 -84.42170 1036 ft 20 kts 115°
2026-05-04 21:17 33.63583 -84.42024 1036 ft 20 kts 96°
2026-05-04 21:17 33.63579 -84.41852 1035 ft 21 kts 92°
2026-05-04 21:18 33.63582 -84.41666 1035 ft 23 kts 90°
2026-05-04 21:18 33.63586 -84.41460 1034 ft 27 kts 87°
2026-05-04 21:18 33.63582 -84.41228 1035 ft 28 kts 91°
2026-05-04 21:18 33.63583 -84.41013 1035 ft 21 kts 91°
2026-05-04 21:19 33.63538 -84.40913 1036 ft 14 kts 167°
2026-05-04 21:19 33.63472 -84.40921 1036 ft 7 kts 228°
2026-05-04 21:19 33.63470 -84.40986 1036 ft 11 kts 271°
2026-05-04 21:19 33.63472 -84.41380 1035 ft 86 kts 270°
2026-05-04 21:20 33.63472 -84.42372 1038 ft 148 kts 270°
2026-05-04 21:20 33.63469 -84.43751 1373 ft 169 kts 269°
2026-05-04 21:20 33.63457 -84.45160 2094 ft 169 kts 266°
2026-05-04 21:20 33.63436 -84.46566 2804 ft 171 kts 267°
2026-05-04 21:21 33.63256 -84.48058 3167 ft 192 kts 248°
2026-05-04 21:21 33.62579 -84.49593 3360 ft 227 kts 239°
2026-05-04 21:21 33.61765 -84.51335 3788 ft 256 kts 241°
2026-05-04 21:21 33.60912 -84.53259 4625 ft 267 kts 242°
2026-05-04 21:22 33.60042 -84.55248 5653 ft 270 kts 238°
2026-05-04 21:22 33.58847 -84.56974 6727 ft 270 kts 220°
2026-05-04 21:22 33.57232 -84.58122 7696 ft 273 kts 200°
2026-05-04 21:22 33.55365 -84.58513 8709 ft 276 kts 180°
2026-05-04 21:23 33.53441 -84.58406 9712 ft 277 kts 177°
2026-05-04 21:23 33.51503 -84.58269 10584 ft 282 kts 177°
2026-05-04 21:23 33.49524 -84.58166 11380 ft 288 kts 176°
2026-05-04 21:23 33.47583 -84.57476 12126 ft 299 kts 150°
2026-05-04 21:24 33.46103 -84.55718 12695 ft 318 kts 122°
2026-05-04 21:24 33.45397 -84.53114 12970 ft 344 kts 98°
2026-05-04 21:24 33.45217 -84.50163 13194 ft 368 kts 91°
2026-05-04 21:24 33.45266 -84.47004 13344 ft 391 kts 87°
2026-05-04 21:25 33.45410 -84.43666 13479 ft 412 kts 86°
2026-05-04 21:25 33.45550 -84.40185 13879 ft 423 kts 88°
2026-05-04 21:25 33.45637 -84.36636 14447 ft 429 kts 88°
2026-05-04 21:25 33.45917 -84.33067 14985 ft 434 kts 80°
2026-05-04 21:26 33.46639 -84.29542 15519 ft 437 kts 73°
2026-05-04 21:26 33.47489 -84.26077 16026 ft 442 kts 72°
2026-05-04 21:26 33.48377 -84.22539 16539 ft 446 kts 72°
2026-05-04 21:26 33.49286 -84.18972 17039 ft 449 kts 72°
2026-05-04 21:27 33.50205 -84.15381 17524 ft 453 kts 72°
2026-05-04 21:27 33.51130 -84.11753 18014 ft 457 kts 72°
2026-05-04 21:27 33.52054 -84.08100 18439 ft 461 kts 72°
2026-05-04 21:27 33.52984 -84.04401 18840 ft 464 kts 72°
2026-05-04 21:28 33.53919 -84.00683 19242 ft 468 kts 72°
2026-05-04 21:28 33.54861 -83.96940 19636 ft 471 kts 72°
2026-05-04 21:28 33.55810 -83.93164 20019 ft 475 kts 72°
2026-05-04 21:28 33.56749 -83.89413 20391 ft 477 kts 72°
2026-05-04 21:29 33.57705 -83.85591 20770 ft 480 kts 72°
2026-05-04 21:29 33.58788 -83.81801 21124 ft 481 kts 65°
2026-05-04 21:29 33.60166 -83.78137 21476 ft 483 kts 63°
2026-05-04 21:29 33.61570 -83.74457 21824 ft 486 kts 63°
2026-05-04 21:30 33.62975 -83.70755 22171 ft 489 kts 63°
2026-05-04 21:30 33.64382 -83.67028 22503 ft 492 kts 63°
2026-05-04 21:30 33.65676 -83.63215 22817 ft 496 kts 70°
2026-05-04 21:30 33.66676 -83.59239 23122 ft 499 kts 69°
2026-05-04 21:31 33.69826 -83.51915 23723 ft 499 kts 55°
2026-05-04 21:31 33.71629 -83.48345 24002 ft 501 kts 56°
2026-05-04 21:31 33.73417 -83.44740 24298 ft 502 kts 56°
2026-05-04 21:32 33.75177 -83.41120 24669 ft 502 kts 57°
2026-05-04 21:32 33.76921 -83.37493 25034 ft 502 kts 57°
2026-05-04 21:32 33.78664 -83.33861 25428 ft 501 kts 57°
2026-05-04 21:32 33.80405 -83.30236 25831 ft 501 kts 57°
2026-05-04 21:33 33.82146 -83.26613 26217 ft 500 kts 57°
2026-05-04 21:33 33.83901 -83.22998 26611 ft 500 kts 56°
2026-05-04 21:33 33.85705 -83.19495 27006 ft 499 kts 54°
2026-05-04 21:33 33.87602 -83.16011 27420 ft 498 kts 52°
2026-05-04 21:34 33.89543 -83.12557 27826 ft 498 kts 52°
2026-05-04 21:34 33.91491 -83.09113 28251 ft 498 kts 52°
2026-05-04 21:34 33.93428 -83.05654 28668 ft 498 kts 52°
2026-05-04 21:34 33.95347 -83.02173 29009 ft 500 kts 52°
2026-05-04 21:35 33.97259 -82.98655 29083 ft 505 kts 53°
2026-05-04 21:35 34.01105 -82.91511 29081 ft 509 kts 53°
2026-05-04 21:36 34.04923 -82.84392 29083 ft 509 kts 53°
2026-05-04 21:36 34.08776 -82.77230 29088 ft 509 kts 53°
2026-05-04 21:37 34.12632 -82.70068 29082 ft 509 kts 53°
2026-05-04 21:37 34.16492 -82.62900 29080 ft 509 kts 53°
2026-05-04 21:38 34.20319 -82.55775 29072 ft 509 kts 53°
2026-05-04 21:38 34.24160 -82.48596 29073 ft 509 kts 53°
2026-05-04 21:39 34.27992 -82.41407 29087 ft 508 kts 53°
2026-05-04 21:39 34.31821 -82.34221 29083 ft 508 kts 53°
2026-05-04 21:40 34.35643 -82.27021 29082 ft 509 kts 53°
2026-05-04 21:40 34.39432 -82.19862 29077 ft 509 kts 53°
2026-05-04 21:41 34.43248 -82.12650 29069 ft 508 kts 53°
2026-05-04 21:41 34.47059 -82.05434 29063 ft 508 kts 53°
2026-05-04 21:41 34.48932 -82.01875 28853 ft 490 kts 53°
2026-05-04 21:42 34.50714 -81.98472 28629 ft 466 kts 53°
2026-05-04 21:42 34.52420 -81.95213 27991 ft 452 kts 53°
2026-05-04 21:42 34.54069 -81.92075 27208 ft 443 kts 53°
2026-05-04 21:42 34.55717 -81.88950 26407 ft 436 kts 53°
2026-05-04 21:43 34.57339 -81.85870 25637 ft 430 kts 53°
2026-05-04 21:43 34.58936 -81.82831 24885 ft 424 kts 53°
2026-05-04 21:43 34.60507 -81.79829 24169 ft 419 kts 53°
2026-05-04 21:43 34.62057 -81.76866 23455 ft 413 kts 53°
2026-05-04 21:44 34.63589 -81.73940 22642 ft 408 kts 53°
2026-05-04 21:44 34.64592 -81.72025 22131 ft 404 kts 53°
2026-05-04 21:44 34.66089 -81.69166 21464 ft 399 kts 53°
2026-05-04 21:44 34.68036 -81.65440 20667 ft 392 kts 53°
2026-05-04 21:45 34.69486 -81.62662 20139 ft 386 kts 53°
2026-05-04 21:45 34.70914 -81.59919 19646 ft 382 kts 54°
2026-05-04 21:45 34.72328 -81.57202 19140 ft 379 kts 54°
2026-05-04 21:45 34.73718 -81.54528 18934 ft 367 kts 54°
2026-05-04 21:46 34.75077 -81.51975 18772 ft 352 kts 49°
2026-05-04 21:46 34.76663 -81.49771 18452 ft 343 kts 42°
2026-05-04 21:46 34.77753 -81.48386 18143 ft 342 kts 42°
2026-05-04 21:46 34.79388 -81.46308 17723 ft 338 kts 42°
2026-05-04 21:47 34.81523 -81.43581 17189 ft 334 kts 42°
2026-05-04 21:47 34.83119 -81.41536 16799 ft 332 kts 42°
2026-05-04 21:47 34.84712 -81.39501 16401 ft 331 kts 43°
2026-05-04 21:47 34.86297 -81.37473 16012 ft 331 kts 43°
2026-05-04 21:48 34.87882 -81.35439 15612 ft 331 kts 43°
2026-05-04 21:48 34.88928 -81.34094 15350 ft 331 kts 43°
2026-05-04 21:48 34.90509 -81.32059 14957 ft 330 kts 43°
2026-05-04 21:48 34.92082 -81.30036 14599 ft 329 kts 43°
2026-05-04 21:49 34.93647 -81.28021 14248 ft 326 kts 43°
2026-05-04 21:49 34.95210 -81.26012 13818 ft 326 kts 43°
2026-05-04 21:49 34.97264 -81.23368 13226 ft 323 kts 43°
2026-05-04 21:49 34.98303 -81.22028 12987 ft 320 kts 43°
2026-05-04 21:50 34.99829 -81.20058 12574 ft 318 kts 43°
2026-05-04 21:50 35.01343 -81.18107 12198 ft 315 kts 43°
2026-05-04 21:50 35.02822 -81.16201 11826 ft 312 kts 43°
2026-05-04 21:50 35.04307 -81.14285 11453 ft 310 kts 43°
2026-05-04 21:51 35.05782 -81.12379 11086 ft 308 kts 44°
2026-05-04 21:51 35.07246 -81.10482 10721 ft 306 kts 44°
2026-05-04 21:51 35.08698 -81.08604 10430 ft 301 kts 43°
2026-05-04 21:51 35.10302 -81.07097 10330 ft 284 kts 24°
2026-05-04 21:52 35.12081 -81.06300 10208 ft 262 kts
2026-05-04 21:52 35.14379 -81.06205 10065 ft 243 kts 351°
2026-05-04 21:52 35.15491 -81.06310 10031 ft 241 kts 351°
2026-05-04 21:52 35.17167 -81.06462 10048 ft 241 kts 352°
2026-05-04 21:53 35.18839 -81.06611 10047 ft 241 kts 351°
2026-05-04 21:53 35.20507 -81.06757 10048 ft 241 kts 351°
2026-05-04 21:53 35.22178 -81.06903 10045 ft 241 kts 351°
2026-05-04 21:53 35.23850 -81.07050 10046 ft 241 kts 351°
2026-05-04 21:54 35.25520 -81.07200 10052 ft 241 kts 351°
2026-05-04 21:54 35.27189 -81.07349 10043 ft 241 kts 351°
2026-05-04 21:54 35.28848 -81.07487 9775 ft 238 kts 351°
2026-05-04 21:54 35.30498 -81.07630 9357 ft 237 kts 351°
2026-05-04 21:55 35.32140 -81.07783 8974 ft 236 kts 351°
2026-05-04 21:55 35.33755 -81.07940 8575 ft 235 kts 351°
2026-05-04 21:55 35.35382 -81.08104 8169 ft 234 kts 351°
2026-05-04 21:55 35.37003 -81.08269 7754 ft 233 kts 351°
2026-05-04 21:56 35.38621 -81.08438 7328 ft 233 kts 351°
2026-05-04 21:56 35.40232 -81.08605 6947 ft 232 kts 351°
2026-05-04 21:56 35.41838 -81.08773 6565 ft 232 kts 352°
2026-05-04 21:56 35.43439 -81.08943 6262 ft 230 kts 352°
2026-05-04 21:57 35.45025 -81.09114 5935 ft 229 kts 351°
2026-05-04 21:57 35.46619 -81.09236 5549 ft 232 kts
2026-05-04 21:57 35.48140 -81.08573 5174 ft 237 kts 36°
2026-05-04 21:57 35.49133 -81.07030 4798 ft 236 kts 71°
2026-05-04 21:58 35.49327 -81.05078 4490 ft 231 kts 96°
2026-05-04 21:58 35.48999 -81.03178 4195 ft 227 kts 116°
2026-05-04 21:58 35.48301 -81.01473 4026 ft 220 kts 129°
2026-05-04 21:58 35.47322 -81.00019 4032 ft 221 kts 140°
2026-05-04 21:59 35.46116 -80.98866 4025 ft 219 kts 154°
2026-05-04 21:59 35.44784 -80.97971 4025 ft 219 kts 155°
2026-05-04 21:59 35.43413 -80.97164 4022 ft 218 kts 167°
2026-05-04 21:59 35.41973 -80.96974 4041 ft 205 kts 179°
2026-05-04 22:00 35.40591 -80.96857 4018 ft 192 kts 179°
2026-05-04 22:00 35.39282 -80.96744 3916 ft 186 kts 179°
2026-05-04 22:00 35.37999 -80.96634 3721 ft 184 kts 178°
2026-05-04 22:00 35.36717 -80.96524 3484 ft 186 kts 177°
2026-05-04 22:01 35.35404 -80.96411 3221 ft 191 kts 177°
2026-05-04 22:01 35.34089 -80.96297 3012 ft 187 kts 177°
2026-05-04 22:01 35.32804 -80.96186 2739 ft 182 kts 176°
2026-05-04 22:01 35.31589 -80.96081 2501 ft 168 kts 176°
2026-05-04 22:02 35.30489 -80.95985 2308 ft 152 kts 178°
2026-05-04 22:02 35.29480 -80.95897 2139 ft 138 kts 179°
2026-05-04 22:02 35.28551 -80.95816 1924 ft 130 kts 178°
2026-05-04 22:02 35.27649 -80.95737 1806 ft 127 kts 179°
2026-05-04 22:03 35.26763 -80.95661 1570 ft 129 kts 177°
2026-05-04 22:03 35.25874 -80.95589 1403 ft 128 kts 176°
2026-05-04 22:03 35.24983 -80.95512 1228 ft 129 kts 176°
2026-05-04 22:03 35.24088 -80.95435 1055 ft 130 kts 177°
2026-05-04 22:04 35.23194 -80.95357 878 ft 129 kts 178°
2026-05-04 22:04 35.22305 -80.95280 746 ft 123 kts 175°
2026-05-04 22:04 35.21595 -80.95221 739 ft 77 kts 176°
2026-05-04 22:04 35.21317 -80.95163 738 ft 26 kts 156°
2026-05-04 22:05 35.21201 -80.95082 734 ft 15 kts 146°
2026-05-04 22:05 35.21192 -80.94986 732 ft 14 kts 24°
2026-05-04 22:05 35.21292 -80.94992 733 ft 15 kts 355°
2026-05-04 22:05 35.21411 -80.95003 733 ft 19 kts 356°
2026-05-04 22:06 35.21547 -80.95014 733 ft 20 kts 356°
2026-05-04 22:06 35.21685 -80.95027 734 ft 20 kts 355°
2026-05-04 22:06 35.21828 -80.95040 734 ft 21 kts 354°
2026-05-04 22:06 35.21973 -80.95052 734 ft 21 kts 356°
2026-05-04 22:07 35.22120 -80.95064 734 ft 20 kts 356°
2026-05-04 22:07 35.22213 -80.95030 732 ft 14 kts 68°
2026-05-04 22:07 35.22294 -80.94988 733 ft 15 kts 354°
2026-05-04 22:07 35.22353 -80.94944 732 ft 12 kts 84°
2026-05-04 22:08 35.22357 -80.94841 733 ft 11 kts 88°
2026-05-04 22:08 35.22335 -80.94804 733 ft 5 kts 172°
2026-05-04 22:08 35.22308 -80.94801 733 ft 1 kts 175°
2026-05-04 22:08 35.22307 -80.94801 733 ft 0 kts 175°